Location: Norton
(51.3000°N, 0.8167°E)
Time: 17:32:20
(UTC+00:00)

USA 306 - Pass Details

Date: 03 March 2021
Orbit: 564 x 577 km, 54.0° (Epoch: 13 April)

Event Time Altitude Azimuth Distance (km) Brightness Sun altitude
Rises 18:18:24 0° 261° (W) 2,773 8.8 -6.6°
Reaches altitude 10° 18:20:40 10° 264° (W) 1,874 7.3 -7.0°
Maximum altitude 18:24:55 68° 348° (NNW) 616 3.1 -7.6°
Drops below altitude 10° 18:29:09 10° 72° (ENE) 1,869 4.9 -8.3°
Enters shadow 18:29:14 10° 72° (ENE) 1,902 5.0 -8.3°
